Regional Weather Roundup
Issued by NWS

Home | Current Version | Previous Version | Text Only | Print | Product List | Glossary Off
Versions: 1 2 3 4 5 6 7 8 9 10 11 12 13 14 15 16 17 18 19 20 21 22 23 24 25 26 27 28 29 30 31 32 33 34 35 36 37 38 39 40 41 42 43 44 45 46 47 48 49 50

000
ASUS43 KDTX 160610
RWRMI
MICHIGAN HOURLY REGIONAL WEATHER ROUNDUP
NATIONAL WEATHER SERVICE DETROIT/PONTIAC MI
100 AM EST TUE JAN 16 2018

NOTE: "FAIR" INDICATES FEW OR NO CLOUDS BELOW 12,000 FEET WITH NO
SIGNIFICANT WEATHER AND/OR OBSTRUCTION TO VISIBILITY.

MIZ047>049-052>055-059>063-066>070-074>076-081>083-160700-
SOUTHEAST LOWER MICHIGAN

CITY           SKY/WX    TMP DP  RH WIND       PRES   REMARKS
ADRIAN         CLOUDY    16  12  84 W10G17    30.29S WCI   4
6HR MIN TEMP:  15; 6HR MAX TEMP:  20; 6HR PCP:  0.01;

ALMA           FAIR       3   1  91 CALM      30.29S FOG
6HR MIN TEMP:   3; 6HR MAX TEMP:  17;

ANN ARBOR      FAIR      14  14 100 S6        30.26S FOG     WCI   5
BAD AXE        CLOUDY    13  11  92 CALM      30.27F
6HR MIN TEMP:  13; 6HR MAX TEMP:  18;

CARO           FAIR      10   8  92 CALM      30.27S
DETROIT CITY   LGT SNOW  22  19  89 SW7       30.28S FOG     WCI  13
6HR MIN TEMP:  20; 6HR MAX TEMP:  22; 6HR PCP: TRACE;

DETROIT        CLOUDY    20  18  92 SW7       30.28S FOG     WCI  11
6HR MIN TEMP:  20; 6HR MAX TEMP:  22; 6HR PCP: TRACE;

FLINT          FOG        9   7  92 CALM      30.27R VSB 1/4
6HR MIN TEMP:   9; 6HR MAX TEMP:  18; 6HR PCP: TRACE;

GROSSE ILE     FAIR      20  18  92 W3        30.28R
6HR MIN TEMP:  20; 6HR MAX TEMP:  23;

HILLSDALE      CLOUDY    12   7  79 W7        30.25R WCI   2
HOWELL         LGT SNOW  16  16  97 CALM      30.25S
6HR MIN TEMP:  15; 6HR MAX TEMP:  19;


CITY           SKY/WX    TMP DP  RH WIND       PRES   REMARKS
JACKSON        CLOUDY    12   8  84 SW8       30.26S FOG     WCI   0
6HR MIN TEMP:  12; 6HR MAX TEMP:  19; 6HR PCP: TRACE;

LAMBERTVILLE   CLOUDY    14  10  84 W9        30.31R WCI   2
6HR MIN TEMP:  14; 6HR MAX TEMP:  23;

LANSING        LGT SNOW  17  15  92 CALM      30.27S FOG
6HR MIN TEMP:  16; 6HR MAX TEMP:  18; 6HR PCP:  0.01;

LAPEER         FOG        7   5  89 CALM      30.26S VSB 1
6HR MIN TEMP:   6; 6HR MAX TEMP:  17;

MASON          CLOUDY    19  15  82 CALM      30.26S
6HR MIN TEMP:  18; 6HR MAX TEMP:  20;

MONROE         FAIR      17  11  78 SW12      30.29R WCI   4
6HR MIN TEMP:  15; 6HR MAX TEMP:  22;

MT. CLEMENS    CLOUDY    17  17  99 CALM      30.26S
6HR MIN TEMP:  17; 6HR MAX TEMP:  20; 6HR PCP: TRACE;

PONTIAC        CLOUDY    16  15  96 CALM      30.24R FOG
6HR MIN TEMP:  16; 6HR MAX TEMP:  19; 6HR PCP: TRACE;

PORT HOPE        N/A     19  16  88 W5        30.27S WCI  12
6HR MIN TEMP:  19; 6HR MAX TEMP:  21; 6HR PCP:  0.05;

PORT HURON     CLOUDY    12   9  85 CALM      30.27S
TRI CITIES     CLOUDY    10   9  95 N5        30.29S FOG     WCI   2
6HR MIN TEMP:  10; 6HR MAX TEMP:  17; 6HR PCP: TRACE;

MIDLAND        LGT SNOW   8   4  87 CALM      30.29F
6HR MIN TEMP:   7; 6HR MAX TEMP:  18;

TROY           LGT SNOW  20  19  93 CALM      30.28S
SAGINAW HB     SNOW       9   7  92 CALM      30.29S VSB 1/2
$$
MIZ043>046-050>051-056>058-064>065-071>073-077>080-160700-
SOUTHWEST LOWER MICHIGAN

CITY           SKY/WX    TMP DP  RH WIND       PRES   REMARKS
BATTLE CREEK   LGT SNOW  12   8  84 SW10      30.27S FOG     WCI  -1
6HR MIN TEMP:  12; 6HR MAX TEMP:  21; 6HR PCP:  0.01;

BENTON HARBOR  LGT SNOW  11   6  81 S12       30.31S WCI  -3
6HR MIN TEMP:  11; 6HR MAX TEMP:  22; 6HR PCP: TRACE;

BIG RAPIDS     MOCLDY    10   7  87 CALM      30.27S
6HR MIN TEMP:  10; 6HR MAX TEMP:  16;

COLDWATER      FLURRIES  11   7  83 W9        30.28S WCI  -2
6HR MIN TEMP:  11; 6HR MAX TEMP:  22;

FREMONT        FAIR       8   3  80 CALM      30.29R
6HR MIN TEMP:   7; 6HR MAX TEMP:  18;

HOLLAND        LGT SNOW  20  17  88 VRB5      30.26S FOG     WCI  13
6HR MIN TEMP:  19; 6HR MAX TEMP:  20; 6HR PCP:  0.03;

GRAND RAPIDS   LGT SNOW  17  13  84 NE5       30.27S FOG     WCI  10
6HR MIN TEMP:  17; 6HR MAX TEMP:  19; 6HR PCP:  0.01;

IONIA          LGT SNOW  16  14  93 CALM      30.27R
6HR MIN TEMP:  15; 6HR MAX TEMP:  18;

KALAMAZOO      CLOUDY    12   7  80 SW12      30.28S WCI  -2
6HR MIN TEMP:  12; 6HR MAX TEMP:  22; 6HR PCP: TRACE;

LUDINGTON      MOCLDY    10   8  92 CALM      30.32S
6HR MIN TEMP:   8; 6HR MAX TEMP:  16;

MARSHALL       FAIR      12   8  85 SW9       30.27R WCI   0
6HR MIN TEMP:  12; 6HR MAX TEMP:  19;

MOUNT PLEASANT LGT SNOW  10   6  87 CALM      30.28S
6HR MIN TEMP:  10; 6HR MAX TEMP:  18;

MUSKEGON       CLOUDY    14   9  80 N6        30.30R WCI   5
6HR MIN TEMP:  13; 6HR MAX TEMP:  19; 6HR PCP: TRACE;

SOUTH HAVEN    LGT SNOW  15  11  84 S8        30.29S WCI   4
$$
MIZ016>042-160700-
NORTHERN LOWER MICHIGAN

CITY           SKY/WX    TMP DP  RH WIND       PRES   REMARKS
ALPENA         LGT SNOW  19  16  88 NE16      30.32S FOG     WCI   4
6HR MIN TEMP:  19; 6HR MAX TEMP:  20; 6HR PCP:  0.05;

BEAVER ISLAND  FAIR      15  10  80 NE7       30.39S WCI   5
6HR MIN TEMP:  15; 6HR MAX TEMP:  19;

BELLAIRE       CLOUDY    17  15  90 NE6       30.34S WCI   9
6HR MIN TEMP:  14; 6HR MAX TEMP:  19;

CADILLAC       FAIR       0  -6  76 CALM      30.25S
CHARLEVOIX     CLOUDY    18  13  80 E6        30.38F WCI  10
6HR MIN TEMP:  18; 6HR MAX TEMP:  20;

FRANKFORT      LGT SNOW  10   8  91 CALM      30.33S
GAYLORD        LGT SNOW  15  14  95 NE8       30.27S VSB 1   WCI   4
6HR MIN TEMP:  14; 6HR MAX TEMP:  16; 6HR PCP: TRACE;

GRAYLING       LGT SNOW  12   9  85 N5        30.28S WCI   4
6HR MIN TEMP:  10; 6HR MAX TEMP:  18;

HARBOR SPRINGS FLURRIES  15  12  85 NE6       30.35S WCI   7
HOUGHTON LAKE  MOCLDY     4   2  91 CALM      30.27S
6HR MIN TEMP:   4; 6HR MAX TEMP:  13; 6HR PCP: TRACE;

MANISTEE       FAIR       4   1  88 CALM      30.33R
OSCODA         LGT SNOW  18  15  88 NW6       30.28F WCI  10
6HR MIN TEMP:  18; 6HR MAX TEMP:  19;

PELLSTON       LGT SNOW  14  11  87 N7        30.37S FOG     WCI   4
6HR MIN TEMP:  15; 6HR MAX TEMP:  20; 6HR PCP:  0.01;

ROGERS CITY    LGT SNOW  18  14  86 NE12G18   30.36S WCI   5
TRAVERSE CITY  LGT SNOW  18  15  88 E8        30.32S FOG     WCI   8
6HR MIN TEMP:  12; 6HR MAX TEMP:  19; 6HR PCP: TRACE;

$$
MIZ007>008-015-160700-
EASTERN UPPER MICHIGAN

CITY           SKY/WX    TMP DP  RH WIND       PRES   REMARKS
KINROSS        FLURRIES  11   8  88 N5        30.39F WCI   3
6HR MIN TEMP:  11; 6HR MAX TEMP:  15;

MACKINAC ISLAN CLOUDY    14   9  81 NE16      30.37F WCI  -2
6HR MIN TEMP:  14; 6HR MAX TEMP:  17;

NEWBERRY       MOCLDY    10   9  96 N5        30.39F WCI   2
6HR MIN TEMP:   9; 6HR MAX TEMP:  15;

S. S. MARIE    CLOUDY    14   6  70 NE5       30.39F WCI   6
6HR MIN TEMP:  14; 6HR MAX TEMP:  18;

MUNISING         N/A      8   6  92 CALM      30.42F
6HR MIN TEMP:   7; 6HR MAX TEMP:  18;

$$
MIZ004>006-011>014-085-160700-
CENTRAL UPPER MICHIGAN

CITY           SKY/WX    TMP DP  RH WIND       PRES   REMARKS
MANISTIQUE     MOCLDY     9   8  95 N5        30.40S WCI   1
6HR MIN TEMP:   9; 6HR MAX TEMP:  17;

ESCANABA       FAIR      11   8  88 N5        30.41S WCI   3
6HR MIN TEMP:  11; 6HR MAX TEMP:  18; 6HR PCP: TRACE;

MENOMINEE      CLOUDY    15  12  88 N12       30.38S WCI   2
6HR MIN TEMP:  15; 6HR MAX TEMP:  20; 6HR PCP: TRACE;

SAWYER-GWINN   FLURRIES   7   4  88 CALM      30.38S
6HR MIN TEMP:   7; 6HR MAX TEMP:  15;

$$
MIZ001>003-009>011-084-160700-
WESTERN UPPER MICHIGAN

CITY           SKY/WX    TMP DP  RH WIND       PRES   REMARKS
IRON MOUNTAIN  FAIR       1  -4  78 CALM      30.37S
6HR MIN TEMP:   1; 6HR MAX TEMP:  18; 6HR PCP: TRACE;

HOUGHTON       FAIR      17  11  77 NE9       30.43R WCI   6
6HR MIN TEMP:  17; 6HR MAX TEMP:  21; 6HR PCP:  0.04;

COPPER HARBOR    N/A     22  14  71 E8        30.46S WCI  12
6HR MIN TEMP:  22; 6HR MAX TEMP:  24; 6HR PCP:  0.04;

IRONWOOD       FAIR       0  -3  87 CALM      30.45R
6HR MIN TEMP:  -2; 6HR MAX TEMP:  13; 6HR PCP: TRACE;

$$

ABBREVIATIONS USED IN REMARKS
   TC - TEMPERATURE IN CELSIUS
  WCI - WIND CHILL INDEX
   HX - HEAT INDEX
  VSB - VISIBILITY




USA.gov is the U.S. government's official web portal to all federal, state and local government web resources and services.